Tracking 28920 objects as of 24-May-2024
HD Live streaming from Space Station
objects crossing your sky now

STARLINK-5193

Track STARLINK-5193 now!
10-day predictions
STARLINK-5193 is classified as:


NORAD ID: 54095
Int'l Code: 2022-136AW
Perigee: 546.1 km
Apogee: 547.5 km
Inclination: 53.2 °
Period: 95.4 minutes
Semi major axis: 6917 km
RCS: Unknown
Launch date: October 20, 2022
Source: United States (US)
Launch site: AIR FORCE EASTERN TEST RANGE (AFETR)
Your satellite tracking list
Your tracking list is empty




NASA's NSSDC Master Catalog

Two Line Element Set (TLE):
1 54095U 22136AW  24145.07183770  .00010343  00000-0  66646-3 0  9998
2 54095  53.2172  32.4871 0001000  97.9625 262.1481 15.08868925 88630
Source of the keplerian elements: AFSPC